User: anonymous   Login
Location: Koussan�
(15.2012°N, 12.5548°W)
Time: 14:43:56
(UTC+00:00)
Language:

Cosmos 1328 - Orbit

View from above orbital plane
View from above orbital plane
View from above satellite
View from above satellite

Ground track
Ground track

The orbit data is extracted from the following two-line orbital elements,

1 12987U 81117A   21020.14313544  .00000589  00000-0  35992-4 0  9999
2 12987  82.5183  42.3655 0016406 163.0745 197.1035 15.08272451130346
Epoch (UTC): 20 January 2021 03:26:06
Eccentricity: 0.0016406
inclination: 82.5183°
perigee height: 530 km
apogee height: 553 km
right ascension of ascending node: 42.3655°
argument of perigee: 163.0745°
revolutions per day: 15.08272451
mean anomaly at epoch: 197.1035°
orbit number at epoch: 13034

The dashed part of the orbit path shows where the satellite is in the earth's shadow,  

DLR